Location: Azat
(46.0765°N, 1.7600°E)
Time: 22:35:32
(UTC+00:00)

Resurs 1-3 - Pass Details

Date: 09 April 2020
Orbit: 630 x 632 km, 97.9° (Epoch: 05 June)

Event Time Altitude Azimuth Distance (km) Brightness Sun altitude
Exits shadow 20:18:54 17° 179° (S) 1,576 5.3 -17.8°
Maximum altitude 20:22:10 65° 258° (WSW) 696 3.9 -18.2°
Drops below altitude 10° 20:26:33 10° 341° (NNW) 2,024 7.0 -18.9°
Sets 20:28:47 0° 345° (NNW) 2,937 7.8 -19.2°
